| time (UTC) | temp C | wind direction | speed KPH | gust KPH | rain 1hr cm | rain 24hr cm | rain mn cm | humidity % | barometer mb |
| 20260507031033 | 12 | 355 | 4.8 | 11.3 | 0.00 | 0.00 | 0.00 | 78 | 1016.7 |
| 20260507030532 | 12 | 355 | 6.4 | 9.7 | 0.00 | 0.00 | 0.00 | 79 | 1016.7 |
| 20260507030056 | 12 | 355 | 0.0 | 6.4 | 0.00 | 0.00 | 0.00 | 79 | 1016.6 |
| 20260507025532 | 12 | 0 | 0.0 | 0.0 | 0.00 | 0.00 | 0.00 | 79 | 1016.6 |
| 20260507025033 | 12 | 0 | 0.0 | 0.0 | 0.00 | 0.00 | 0.00 | 78 | 1016.6 |
| 20260507024548 | 12 | 0 | 0.0 | 0.0 | 0.00 | 0.00 | 0.00 | 78 | 1016.6 |
| 20260507024033 | 12 | 0 | 0.0 | 0.0 | 0.00 | 0.00 | 0.00 | 77 | 1016.8 |
| 20260507023533 | 13 | 0 | 0.0 | 0.0 | 0.00 | 0.00 | 0.00 | 76 | 1016.7 |
| 20260507023103 | 13 | 0 | 0.0 | 3.2 | 0.00 | 0.00 | 0.00 | 76 | 1016.8 |
| 20260507022533 | 13 | 0 | 0.0 | 6.4 | 0.00 | 0.00 | 0.00 | 77 | 1016.7 |
| 20260507022034 | 13 | 0 | 0.0 | 6.4 | 0.00 | 0.00 | 0.00 | 78 | 1016.7 |
| 20260507021552 | 13 | 347 | 0.0 | 4.8 | 0.00 | 0.00 | 0.00 | 78 | 1016.6 |
| 20260507021033 | 12 | 347 | 3.2 | 4.8 | 0.00 | 0.00 | 0.00 | 78 | 1016.6 |
| 20260507020533 | 12 | 0 | 0.0 | 1.6 | 0.00 | 0.00 | 0.00 | 78 | 1016.8 |
| 20260507020053 | 12 | 0 | 0.0 | 1.6 | 0.00 | 0.00 | 0.00 | 77 | 1016.7 |
| 20260507015532 | 13 | 0 | 0.0 | 4.8 | 0.00 | 0.00 | 0.00 | 77 | 1016.7 |
| 20260507015033 | 13 | 0 | 0.0 | 4.8 | 0.00 | 0.00 | 0.00 | 77 | 1016.6 |
| 20260507014601 | 13 | 0 | 1.6 | 4.8 | 0.00 | 0.00 | 0.00 | 77 | 1016.6 |
| 20260507014033 | 13 | 347 | 1.6 | 4.8 | 0.00 | 0.00 | 0.00 | 76 | 1016.6 |
| 20260507013533 | 13 | 347 | 0.0 | 4.8 | 0.00 | 0.00 | 0.00 | 75 | 1016.3 |
| 20260507013109 | 13 | 0 | 0.0 | 4.8 | 0.00 | 0.00 | 0.00 | 75 | 1016.5 |
| 20260507012535 | 13 | 352 | 0.0 | 4.8 | 0.00 | 0.00 | 0.00 | 75 | 1016.3 |
| 20260507012034 | 13 | 352 | 1.6 | 4.8 | 0.00 | 0.00 | 0.00 | 73 | 1016.2 |
| 20260507011548 | 13 | 352 | 1.6 | 4.8 | 0.00 | 0.00 | 0.00 | 73 | 1016.1 |
| 20260507011033 | 13 | 297 | 0.0 | 3.2 | 0.00 | 0.00 | 0.00 | 73 | 1015.9 |
| 20260507010533 | 14 | 0 | 0.0 | 3.2 | 0.00 | 0.00 | 0.00 | 73 | 1015.9 |
| 20260507010047 | 14 | 0 | 0.0 | 3.2 | 0.00 | 0.00 | 0.00 | 73 | 1015.8 |
| 20260507005534 | 13 | 297 | 0.0 | 3.2 | 0.00 | 0.00 | 0.00 | 73 | 1015.8 |
| 20260507005034 | 14 | 297 | 0.0 | 3.2 | 0.00 | 0.00 | 0.00 | 72 | 1015.9 |
| 20260507004545 | 14 | 0 | 0.0 | 6.4 | 0.00 | 0.00 | 0.00 | 72 | 1015.9 |
| 20260507004033 | 14 | 297 | 0.0 | 8.0 | 0.00 | 0.00 | 0.00 | 72 | 1015.8 |
| 20260507003534 | 14 | 298 | 4.8 | 8.0 | 0.00 | 0.00 | 0.00 | 73 | 1015.8 |
| 20260507003041 | 13 | 105 | 3.2 | 8.0 | 0.00 | 0.00 | 0.00 | 73 | 1015.7 |
| 20260507002533 | 13 | 14 | 4.8 | 8.0 | 0.00 | 0.00 | 0.00 | 74 | 1015.8 |
| 20260507002033 | 13 | 355 | 4.8 | 8.0 | 0.00 | 0.00 | 0.00 | 75 | 1015.9 |
| 20260507001608 | 13 | 318 | 3.2 | 4.8 | 0.00 | 0.00 | 0.00 | 74 | 1015.9 |
| 20260507001032 | 13 | 318 | 1.6 | 3.2 | 0.00 | 0.00 | 0.00 | 73 | 1016.0 |
| 20260507000535 | 13 | 318 | 1.6 | 3.2 | 0.00 | 0.00 | 0.00 | 72 | 1016.2 |
| 20260507000049 | 13 | 318 | 0.0 | 1.6 | 0.00 | 0.00 | 0.00 | 72 | 1016.2 |
| 20260506235535 | 13 | 0 | 0.0 | 1.6 | 0.00 | 0.00 | 0.00 | 71 | 1016.3 |
| 20260506235033 | 14 | 0 | 0.0 | 1.6 | 0.00 | 0.00 | 0.00 | 70 | 1016.3 |
| 20260506234548 | 14 | 0 | 0.0 | 0.0 | 0.00 | 0.00 | 0.00 | 69 | 1016.4 |
| 20260506234033 | 14 | 0 | 0.0 | 0.0 | 0.00 | 0.00 | 0.00 | 67 | 1016.3 |
| 20260506233533 | 15 | 0 | 0.0 | 1.6 | 0.00 | 0.00 | 0.00 | 67 | 1016.4 |
| 20260506233048 | 15 | 0 | 0.0 | 3.2 | 0.00 | 0.00 | 0.00 | 66 | 1016.4 |
| 20260506232533 | 15 | 0 | 0.0 | 3.2 | 0.00 | 0.00 | 0.00 | 65 | 1016.5 |
| 20260506232033 | 15 | 318 | 0.0 | 6.4 | 0.00 | 0.00 | 0.00 | 65 | 1016.4 |
| 20260506231549 | 15 | 318 | 1.6 | 6.4 | 0.00 | 0.00 | 0.00 | 65 | 1016.3 |
| 20260506231034 | 15 | 318 | 3.2 | 6.4 | 0.00 | 0.00 | 0.00 | 65 | 1016.4 |
| 20260506230534 | 15 | 319 | 1.6 | 6.4 | 0.00 | 0.00 | 0.00 | 66 | 1016.4 |
| 20260506230045 | 15 | 319 | 3.2 | 6.4 | 0.00 | 0.00 | 0.00 | 66 | 1016.4 |
| 20260506225534 | 15 | 319 | 1.6 | 3.2 | 0.00 | 0.00 | 0.00 | 65 | 1016.4 |
| 20260506225034 | 15 | 0 | 0.0 | 1.6 | 0.00 | 0.00 | 0.00 | 64 | 1016.5 |
| 20260506224549 | 15 | 0 | 0.0 | 3.2 | 0.00 | 0.00 | 0.00 | 64 | 1016.5 |
| 20260506224037 | 15 | 0 | 0.0 | 4.8 | 0.00 | 0.00 | 0.00 | 64 | 1016.6 |
| 20260506223533 | 15 | 319 | 1.6 | 8.0 | 0.00 | 0.00 | 0.00 | 63 | 1016.7 |
| 20260506223103 | 15 | 319 | 1.6 | 8.0 | 0.00 | 0.00 | 0.00 | 63 | 1016.7 |
| 20260506222535 | 15 | 355 | 3.2 | 8.0 | 0.00 | 0.00 | 0.00 | 63 | 1016.7 |
| 20260506222036 | 15 | 355 | 3.2 | 8.0 | 0.00 | 0.00 | 0.00 | 63 | 1016.7 |
| 20260506221549 | 15 | 316 | 3.2 | 6.4 | 0.00 | 0.00 | 0.00 | 64 | 1016.7 |
| 20260506221033 | 15 | 316 | 3.2 | 6.4 | 0.00 | 0.00 | 0.00 | 65 | 1016.8 |
| 20260506220533 | 15 | 316 | 1.6 | 6.4 | 0.00 | 0.00 | 0.00 | 66 | 1016.8 |
| 20260506220050 | 14 | 316 | 3.2 | 4.8 | 0.00 | 0.00 | 0.00 | 67 | 1016.8 |
| 20260506215533 | 14 | 316 | 1.6 | 4.8 | 0.00 | 0.00 | 0.00 | 68 | 1016.9 |
| 20260506215033 | 14 | 316 | 3.2 | 4.8 | 0.00 | 0.00 | 0.00 | 68 | 1016.9 |
| 20260506214547 | 14 | 316 | 0.0 | 3.2 | 0.00 | 0.00 | 0.00 | 67 | 1016.9 |
| 20260506214033 | 14 | 0 | 0.0 | 3.2 | 0.00 | 0.00 | 0.00 | 67 | 1016.9 |
| 20260506213534 | 14 | 316 | 0.0 | 1.6 | 0.00 | 0.00 | 0.00 | 67 | 1017.0 |
| 20260506213047 | 14 | 0 | 0.0 | 1.6 | 0.00 | 0.00 | 0.00 | 67 | 1017.0 |
| 20260506212533 | 14 | 316 | 0.0 | 1.6 | 0.00 | 0.00 | 0.00 | 66 | 1017.2 |
| 20260506212036 | 14 | 0 | 0.0 | 1.6 | 0.00 | 0.00 | 0.00 | 65 | 1017.1 |
| 20260506211555 | 14 | 0 | 0.0 | 0.0 | 0.00 | 0.00 | 0.00 | 64 | 1017.1 |
| 20260506211036 | 15 | 0 | 0.0 | 0.0 | 0.00 | 0.00 | 0.00 | 64 | 1017.2 |
| 20260506210536 | 15 | 0 | 0.0 | 1.6 | 0.00 | 0.00 | 0.00 | 63 | 1017.2 |
| 20260506210053 | 15 | 0 | 0.0 | 1.6 | 0.00 | 0.00 | 0.00 | 62 | 1017.3 |
| 20260506205536 | 15 | 0 | 0.0 | 1.6 | 0.00 | 0.00 | 0.00 | 62 | 1017.3 |
| 20260506205033 | 15 | 0 | 0.0 | 1.6 | 0.00 | 0.00 | 0.00 | 62 | 1017.2 |
| 20260506204548 | 15 | 0 | 0.0 | 1.6 | 0.00 | 0.00 | 0.00 | 62 | 1017.2 |
| 20260506204033 | 15 | 0 | 0.0 | 1.6 | 0.00 | 0.00 | 0.00 | 62 | 1017.1 |
| 20260506203534 | 15 | 0 | 0.0 | 1.6 | 0.00 | 0.00 | 0.00 | 62 | 1017.1 |
| 20260506203049 | 15 | 316 | 0.0 | 3.2 | 0.00 | 0.00 | 0.00 | 61 | 1017.2 |
| 20260506202533 | 15 | 0 | 0.0 | 3.2 | 0.00 | 0.00 | 0.00 | 61 | 1017.2 |
| 20260506202034 | 15 | 0 | 0.0 | 0.0 | 0.00 | 0.00 | 0.00 | 61 | 1017.2 |
| 20260506201554 | 15 | 0 | 0.0 | 0.0 | 0.00 | 0.00 | 0.00 | 60 | 1017.1 |
| 20260506201035 | 16 | 0 | 0.0 | 0.0 | 0.00 | 0.00 | 0.00 | 60 | 1017.1 |
| 20260506200534 | 16 | 0 | 0.0 | 0.0 | 0.00 | 0.00 | 0.00 | 59 | 1017.0 |
| 20260506200137 | 16 | 0 | 0.0 | 0.0 | 0.00 | 0.00 | 0.00 | 59 | 1017.1 |
| 20260506195534 | 16 | 0 | 0.0 | 0.0 | 0.00 | 0.00 | 0.00 | 59 | 1017.0 |
| 20260506195034 | 16 | 0 | 0.0 | 3.2 | 0.00 | 0.00 | 0.00 | 58 | 1016.9 |
| 20260506194600 | 16 | 0 | 0.0 | 3.2 | 0.00 | 0.00 | 0.00 | 57 | 1016.8 |
| 20260506194033 | 16 | 316 | 0.0 | 3.2 | 0.00 | 0.00 | 0.00 | 57 | 1016.8 |
| 20260506193535 | 16 | 0 | 0.0 | 1.6 | 0.00 | 0.00 | 0.00 | 57 | 1016.8 |
| 20260506193049 | 16 | 0 | 0.0 | 3.2 | 0.00 | 0.00 | 0.00 | 57 | 1016.7 |
| 20260506192533 | 16 | 316 | 0.0 | 3.2 | 0.00 | 0.00 | 0.00 | 56 | 1016.6 |
| 20260506192035 | 16 | 0 | 0.0 | 1.6 | 0.00 | 0.00 | 0.00 | 56 | 1016.6 |
| 20260506191549 | 16 | 0 | 0.0 | 4.8 | 0.00 | 0.00 | 0.00 | 55 | 1016.5 |
| 20260506191034 | 16 | 0 | 1.6 | 4.8 | 0.00 | 0.00 | 0.00 | 54 | 1016.5 |
| 20260506190534 | 16 | 316 | 1.6 | 4.8 | 0.00 | 0.00 | 0.00 | 54 | 1016.5 |
| 20260506190046 | 16 | 316 | 3.2 | 4.8 | 0.00 | 0.00 | 0.00 | 54 | 1016.5 |
| 20260506185533 | 17 | 316 | 0.0 | 3.2 | 0.00 | 0.00 | 0.00 | 55 | 1016.4 |
| 20260506185034 | 17 | 0 | 0.0 | 3.2 | 0.00 | 0.00 | 0.00 | 55 | 1016.4 |
| 20260506184553 | 17 | 316 | 0.0 | 3.2 | 0.00 | 0.00 | 0.00 | 55 | 1016.3 |
| 20260506184033 | 17 | 316 | 0.0 | 3.2 | 0.00 | 0.00 | 0.00 | 54 | 1016.3 |
| 20260506183533 | 17 | 0 | 0.0 | 3.2 | 0.00 | 0.00 | 0.00 | 52 | 1016.3 |
| 20260506183053 | 17 | 0 | 0.0 | 4.8 | 0.00 | 0.00 | 0.00 | 51 | 1016.2 |
| 20260506182533 | 17 | 316 | 0.0 | 4.8 | 0.00 | 0.00 | 0.00 | 50 | 1016.2 |
| 20260506182033 | 17 | 316 | 1.6 | 4.8 | 0.00 | 0.00 | 0.00 | 50 | 1016.2 |
| 20260506181548 | 17 | 316 | 1.6 | 4.8 | 0.00 | 0.00 | 0.00 | 50 | 1016.1 |
| 20260506181033 | 17 | 316 | 1.6 | 4.8 | 0.00 | 0.00 | 0.00 | 51 | 1016.0 |
| 20260506180534 | 17 | 317 | 1.6 | 4.8 | 0.00 | 0.00 | 0.00 | 51 | 1015.9 |
| 20260506180053 | 18 | 325 | 1.6 | 4.8 | 0.00 | 0.00 | 0.00 | 51 | 1016.0 |
| 20260506175535 | 18 | 350 | 1.6 | 4.8 | 0.00 | 0.00 | 0.00 | 52 | 1015.9 |
| 20260506175033 | 18 | 350 | 1.6 | 3.2 | 0.00 | 0.00 | 0.00 | 52 | 1015.9 |
| 20260506174546 | 18 | 0 | 0.0 | 3.2 | 0.00 | 0.00 | 0.00 | 52 | 1015.9 |
| 20260506174033 | 18 | 0 | 0.0 | 0.0 | 0.00 | 0.00 | 0.00 | 53 | 1015.9 |
| 20260506173533 | 18 | 0 | 0.0 | 0.0 | 0.00 | 0.00 | 0.00 | 52 | 1015.8 |
| 20260506173057 | 19 | 0 | 0.0 | 0.0 | 0.00 | 0.00 | 0.00 | 51 | 1015.8 |
| 20260506172534 | 19 | 0 | 0.0 | 0.0 | 0.00 | 0.00 | 0.00 | 51 | 1015.8 |
| 20260506172034 | 20 | 0 | 0.0 | 1.6 | 0.00 | 0.00 | 0.00 | 50 | 1015.7 |
| 20260506171552 | 20 | 0 | 0.0 | 1.6 | 0.00 | 0.00 | 0.00 | 48 | 1015.7 |
| 20260506171034 | 20 | 350 | 0.0 | 1.6 | 0.00 | 0.00 | 0.00 | 47 | 1015.8 |
| 20260506170534 | 20 | 0 | 0.0 | 3.2 | 0.00 | 0.00 | 0.00 | 47 | 1015.8 |
| 20260506170053 | 20 | 0 | 0.0 | 4.8 | 0.00 | 0.00 | 0.00 | 45 | 1015.7 |
| 20260506165534 | 20 | 0 | 3.2 | 6.4 | 0.00 | 0.00 | 0.00 | 44 | 1015.7 |
| 20260506165033 | 20 | 350 | 3.2 | 6.4 | 0.00 | 0.00 | 0.00 | 44 | 1015.8 |
| 20260506164548 | 21 | 349 | 3.2 | 6.4 | 0.00 | 0.00 | 0.00 | 44 | 1015.8 |
| 20260506164032 | 21 | 0 | 0.0 | 6.4 | 0.00 | 0.00 | 0.00 | 44 | 1015.7 |
| 20260506163532 | 21 | 346 | 1.6 | 6.4 | 0.00 | 0.00 | 0.00 | 44 | 1015.8 |
| 20260506163050 | 21 | 347 | 1.6 | 6.4 | 0.00 | 0.00 | 0.00 | 44 | 1015.8 |
| 20260506162535 | 21 | 0 | 1.6 | 9.7 | 0.00 | 0.00 | 0.00 | 44 | 1015.8 |
| 20260506162036 | 21 | 348 | 4.8 | 9.7 | 0.00 | 0.00 | 0.00 | 44 | 1015.8 |
| 20260506161554 | 21 | 348 | 4.8 | 14.5 | 0.00 | 0.00 | 0.00 | 43 | 1015.8 |
| 20260506161034 | 21 | 348 | 4.8 | 14.5 | 0.00 | 0.00 | 0.00 | 43 | 1015.7 |
| 20260506160535 | 21 | 348 | 0.0 | 8.0 | 0.00 | 0.00 | 0.00 | 45 | 1015.8 |
| 20260506155534 | 21 | 348 | 4.8 | 9.7 | 0.00 | 0.00 | 0.00 | 45 | 1015.8 |
| 20260506155033 | 21 | 349 | 3.2 | 9.7 | 0.00 | 0.00 | 0.00 | 45 | 1015.6 |
| 20260506154552 | 21 | 349 | 4.8 | 9.7 | 0.00 | 0.00 | 0.00 | 47 | 1015.8 |
| 20260506154033 | 21 | 350 | 3.2 | 9.7 | 0.00 | 0.00 | 0.00 | 47 | 1015.8 |
| 20260506153532 | 21 | 350 | 3.2 | 9.7 | 0.00 | 0.00 | 0.00 | 48 | 1015.9 |
| 20260506153049 | 21 | 350 | 3.2 | 9.7 | 0.00 | 0.00 | 0.00 | 47 | 1015.9 |
| 20260506152536 | 21 | 348 | 3.2 | 9.7 | 0.00 | 0.00 | 0.00 | 49 | 1015.9 |
| 20260506152036 | 21 | 350 | 3.2 | 14.5 | 0.00 | 0.00 | 0.00 | 48 | 1016.0 |
| 20260506151548 | 21 | 350 | 4.8 | 14.5 | 0.00 | 0.00 | 0.00 | 48 | 1016.0 |
| 20260506151036 | 21 | 350 | 6.4 | 14.5 | 0.00 | 0.00 | 0.00 | 50 | 1016.0 |
| 20260506150534 | 21 | 350 | 8.0 | 20.9 | 0.00 | 0.00 | 0.00 | 51 | 1016.0 |
| 20260506150054 | 21 | 350 | 9.7 | 20.9 | 0.00 | 0.00 | 0.00 | 51 | 1016.1 |
| 20260506145534 | 21 | 350 | 8.0 | 17.7 | 0.00 | 0.00 | 0.00 | 48 | 1016.1 |
| 20260506145033 | 21 | 350 | 8.0 | 17.7 | 0.00 | 0.00 | 0.00 | 47 | 1016.1 |
| 20260506144552 | 22 | 350 | 9.7 | 17.7 | 0.00 | 0.00 | 0.00 | 47 | 1016.1 |
| 20260506144034 | 22 | 350 | 8.0 | 19.3 | 0.00 | 0.00 | 0.00 | 45 | 1016.1 |
| 20260506143534 | 21 | 348 | 6.4 | 19.3 | 0.00 | 0.00 | 0.00 | 47 | 1016.1 |
| 20260506143053 | 21 | 350 | 8.0 | 19.3 | 0.00 | 0.00 | 0.00 | 47 | 1016.2 |
| 20260506142532 | 21 | 350 | 6.4 | 20.9 | 0.00 | 0.00 | 0.00 | 50 | 1016.2 |
| 20260506142033 | 21 | 350 | 11.3 | 20.9 | 0.00 | 0.00 | 0.00 | 51 | 1016.2 |
| 20260506141551 | 21 | 349 | 8.0 | 19.3 | 0.00 | 0.00 | 0.00 | 50 | 1016.2 |
| 20260506141036 | 21 | 350 | 9.7 | 19.3 | 0.00 | 0.00 | 0.00 | 50 | 1016.2 |
| 20260506140533 | 21 | 348 | 9.7 | 20.9 | 0.00 | 0.00 | 0.00 | 50 | 1016.1 |
| 20260506140051 | 21 | 349 | 11.3 | 22.5 | 0.00 | 0.00 | 0.00 | 51 | 1016.2 |
| 20260506135535 | 21 | 350 | 4.8 | 22.5 | 0.00 | 0.00 | 0.00 | 50 | 1016.2 |
| 20260506135033 | 21 | 350 | 8.0 | 27.4 | 0.00 | 0.00 | 0.00 | 49 | 1016.2 |
| 20260506134616 | 21 | 349 | 8.0 | 27.4 | 0.00 | 0.00 | 0.00 | 51 | 1016.2 |
| 20260506134034 | 21 | 350 | 11.3 | 27.4 | 0.00 | 0.00 | 0.00 | 50 | 1016.3 |
| 20260506133534 | 21 | 351 | 6.4 | 20.9 | 0.00 | 0.00 | 0.00 | 51 | 1016.3 |
| 20260506133053 | 22 | 350 | 4.8 | 16.1 | 0.00 | 0.00 | 0.00 | 48 | 1016.2 |
| 20260506132533 | 22 | 0 | 8.0 | 16.1 | 0.00 | 0.00 | 0.00 | 53 | 1016.2 |
| 20260506132035 | 22 | 350 | 6.4 | 14.5 | 0.00 | 0.00 | 0.00 | 53 | 1016.2 |
| 20260506131605 | 22 | 350 | 6.4 | 14.5 | 0.00 | 0.00 | 0.00 | 54 | 1016.3 |
| 20260506131035 | 22 | 348 | 8.0 | 17.7 | 0.00 | 0.00 | 0.00 | 54 | 1016.1 |
| 20260506130534 | 21 | 350 | 6.4 | 17.7 | 0.00 | 0.00 | 0.00 | 54 | 1016.2 |
| 20260506130048 | 22 | 350 | 8.0 | 14.5 | 0.00 | 0.00 | 0.00 | 53 | 1016.2 |
| 20260506125533 | 22 | 349 | 6.4 | 14.5 | 0.00 | 0.00 | 0.00 | 55 | 1016.3 |
| 20260506125033 | 22 | 350 | 3.2 | 14.5 | 0.00 | 0.00 | 0.00 | 54 | 1016.2 |
| 20260506124546 | 22 | 350 | 4.8 | 14.5 | 0.00 | 0.00 | 0.00 | 53 | 1016.3 |
| 20260506124033 | 22 | 350 | 6.4 | 14.5 | 0.00 | 0.00 | 0.00 | 52 | 1016.4 |
| 20260506123533 | 22 | 350 | 4.8 | 17.7 | 0.00 | 0.00 | 0.00 | 50 | 1016.4 |
| 20260506123050 | 21 | 351 | 4.8 | 17.7 | 0.00 | 0.00 | 0.00 | 52 | 1016.4 |
| 20260506122533 | 21 | 351 | 8.0 | 17.7 | 0.00 | 0.00 | 0.00 | 52 | 1016.5 |
| 20260506122031 | 21 | 350 | 9.7 | 17.7 | 0.00 | 0.00 | 0.00 | 51 | 1016.5 |
| 20260506121549 | 22 | 350 | 8.0 | 17.7 | 0.00 | 0.00 | 0.00 | 51 | 1016.5 |
| 20260506121034 | 22 | 350 | 6.4 | 19.3 | 0.00 | 0.00 | 0.00 | 51 | 1016.5 |
| 20260506120535 | 21 | 351 | 8.0 | 20.9 | 0.00 | 0.00 | 0.00 | 56 | 1016.5 |
| 20260506120051 | 21 | 351 | 11.3 | 20.9 | 0.00 | 0.00 | 0.00 | 53 | 1016.6 |
| 20260506115536 | 21 | 350 | 9.7 | 19.3 | 0.00 | 0.00 | 0.00 | 55 | 1016.6 |
| 20260506115033 | 22 | 351 | 8.0 | 22.5 | 0.00 | 0.00 | 0.00 | 54 | 1016.7 |
| 20260506114552 | 21 | 351 | 9.7 | 22.5 | 0.00 | 0.00 | 0.00 | 52 | 1016.6 |
| 20260506114032 | 22 | 350 | 11.3 | 20.9 | 0.00 | 0.00 | 0.00 | 51 | 1016.7 |
| 20260506113536 | 22 | 350 | 4.8 | 20.9 | 0.00 | 0.00 | 0.00 | 50 | 1016.7 |
| 20260506113048 | 21 | 350 | 11.3 | 20.9 | 0.00 | 0.00 | 0.00 | 51 | 1016.6 |
| 20260506112533 | 21 | 350 | 11.3 | 20.9 | 0.00 | 0.00 | 0.00 | 47 | 1016.7 |
| 20260506112033 | 21 | 350 | 12.9 | 20.9 | 0.00 | 0.00 | 0.00 | 45 | 1016.7 |
| 20260506111610 | 22 | 350 | 11.3 | 20.9 | 0.00 | 0.00 | 0.00 | 48 | 1016.6 |
| 20260506111033 | 21 | 350 | 9.7 | 19.3 | 0.00 | 0.00 | 0.00 | 49 | 1016.5 |
| 20260506110533 | 21 | 350 | 11.3 | 19.3 | 0.00 | 0.00 | 0.00 | 49 | 1016.6 |
| 20260506110054 | 22 | 350 | 8.0 | 19.3 | 0.00 | 0.00 | 0.00 | 50 | 1016.6 |
| 20260506105533 | 22 | 350 | 8.0 | 14.5 | 0.00 | 0.00 | 0.00 | 52 | 1016.6 |
| 20260506105034 | 22 | 350 | 6.4 | 16.1 | 0.00 | 0.00 | 0.00 | 54 | 1016.6 |
| 20260506104548 | 22 | 351 | 8.0 | 16.1 | 0.00 | 0.00 | 0.00 | 50 | 1016.5 |
| 20260506104033 | 22 | 350 | 8.0 | 16.1 | 0.00 | 0.00 | 0.00 | 50 | 1016.6 |
| 20260506103533 | 22 | 351 | 6.4 | 17.7 | 0.00 | 0.00 | 0.00 | 51 | 1016.6 |
| 20260506103048 | 22 | 350 | 8.0 | 17.7 | 0.00 | 0.00 | 0.00 | 50 | 1016.6 |
| 20260506102536 | 22 | 350 | 6.4 | 16.1 | 0.00 | 0.00 | 0.00 | 53 | 1016.6 |
| 20260506102039 | 22 | 351 | 8.0 | 17.7 | 0.00 | 0.00 | 0.00 | 49 | 1016.7 |
| 20260506101550 | 22 | 351 | 9.7 | 17.7 | 0.00 | 0.00 | 0.00 | 48 | 1016.7 |
| 20260506101035 | 22 | 350 | 8.0 | 16.1 | 0.00 | 0.00 | 0.00 | 47 | 1016.7 |
| 20260506100536 | 22 | 351 | 9.7 | 16.1 | 0.00 | 0.00 | 0.00 | 44 | 1016.6 |
| 20260506100045 | 22 | 351 | 8.0 | 17.7 | 0.00 | 0.00 | 0.00 | 43 | 1016.7 |
| 20260506095533 | 22 | 351 | 8.0 | 17.7 | 0.00 | 0.00 | 0.00 | 44 | 1016.6 |
| 20260506095035 | 22 | 350 | 8.0 | 17.7 | 0.00 | 0.00 | 0.00 | 44 | 1016.7 |
| 20260506094545 | 22 | 350 | 12.9 | 17.7 | 0.00 | 0.00 | 0.00 | 43 | 1016.7 |
| 20260506094037 | 23 | 350 | 11.3 | 17.7 | 0.00 | 0.00 | 0.00 | 42 | 1016.7 |
| 20260506093533 | 23 | 350 | 6.4 | 16.1 | 0.00 | 0.00 | 0.00 | 41 | 1016.7 |
| 20260506093054 | 23 | 351 | 4.8 | 16.1 | 0.00 | 0.00 | 0.00 | 41 | 1016.7 |
| 20260506092533 | 22 | 351 | 8.0 | 19.3 | 0.00 | 0.00 | 0.00 | 41 | 1016.7 |
| 20260506092039 | 23 | 350 | 8.0 | 20.9 | 0.00 | 0.00 | 0.00 | 43 | 1016.8 |
| 20260506091552 | 23 | 351 | 6.4 | 20.9 | 0.00 | 0.00 | 0.00 | 43 | 1016.7 |
| 20260506091033 | 22 | 351 | 12.9 | 20.9 | 0.00 | 0.00 | 0.00 | 43 | 1016.8 |
| 20260506090536 | 22 | 351 | 9.7 | 19.3 | 0.00 | 0.00 | 0.00 | 46 | 1016.8 |
| 20260506090047 | 22 | 351 | 8.0 | 19.3 | 0.00 | 0.00 | 0.00 | 47 | 1016.7 |
| 20260506085534 | 22 | 351 | 6.4 | 19.3 | 0.00 | 0.00 | 0.00 | 48 | 1016.7 |
| 20260506085035 | 22 | 351 | 9.7 | 20.9 | 0.00 | 0.00 | 0.00 | 47 | 1016.6 |
| 20260506084549 | 22 | 351 | 9.7 | 20.9 | 0.00 | 0.00 | 0.00 | 46 | 1016.5 |
| 20260506084033 | 22 | 350 | 8.0 | 16.1 | 0.00 | 0.00 | 0.00 | 46 | 1016.6 |
| 20260506083534 | 22 | 351 | 8.0 | 16.1 | 0.00 | 0.00 | 0.00 | 48 | 1016.5 |
| 20260506083112 | 22 | 351 | 4.8 | 14.5 | 0.00 | 0.00 | 0.00 | 49 | 1016.5 |
| 20260506082535 | 22 | 351 | 4.8 | 16.1 | 0.00 | 0.00 | 0.00 | 48 | 1016.5 |
| 20260506082035 | 22 | 350 | 6.4 | 16.1 | 0.00 | 0.00 | 0.00 | 48 | 1016.5 |
| 20260506081552 | 22 | 351 | 8.0 | 17.7 | 0.00 | 0.00 | 0.00 | 48 | 1016.5 |
| 20260506081033 | 22 | 351 | 4.8 | 17.7 | 0.00 | 0.00 | 0.00 | 49 | 1016.5 |
| 20260506080533 | 22 | 351 | 9.7 | 17.7 | 0.00 | 0.00 | 0.00 | 49 | 1016.5 |
| 20260506073048 | 21 | 350 | 8.0 | 14.5 | 0.00 | 0.00 | 0.00 | 49 | 1016.3 |
| 20260506072536 | 21 | 352 | 8.0 | 19.3 | 0.00 | 0.00 | 0.00 | 49 | 1016.3 |
| 20260506072034 | 21 | 350 | 9.7 | 19.3 | 0.00 | 0.00 | 0.00 | 49 | 1016.2 |
| 20260506071551 | 21 | 350 | 6.4 | 17.7 | 0.00 | 0.00 | 0.00 | 49 | 1016.2 |
| 20260506071033 | 20 | 351 | 6.4 | 16.1 | 0.00 | 0.00 | 0.00 | 49 | 1016.1 |
| 20260506070536 | 20 | 350 | 4.8 | 12.9 | 0.00 | 0.00 | 0.00 | 49 | 1016.1 |
| 20260506062033 | 20 | 350 | 1.6 | 4.8 | 0.00 | 0.00 | 0.00 | 51 | 1016.2 |
| 20260506061550 | 20 | 350 | 1.6 | 4.8 | 0.00 | 0.00 | 0.00 | 52 | 1016.2 |
| 20260506061034 | 19 | 0 | 0.0 | 3.2 | 0.00 | 0.00 | 0.00 | 54 | 1016.1 |
| 20260506060534 | 19 | 350 | 0.0 | 3.2 | 0.00 | 0.00 | 0.00 | 55 | 1016.1 |
| 20260506051033 | 17 | 355 | 3.2 | 8.0 | 0.00 | 0.00 | 0.00 | 63 | 1015.9 |
| 20260506050534 | 16 | 352 | 1.6 | 8.0 | 0.00 | 0.00 | 0.00 | 66 | 1015.8 |
| 20260506045032 | 15 | 0 | 1.6 | 4.8 | 0.00 | 0.00 | 0.00 | 72 | 1015.7 |
| 20260506044550 | 14 | 0 | 0.0 | 3.2 | 0.00 | 0.00 | 0.00 | 72 | 1015.7 |
| 20260506044034 | 14 | 355 | 0.0 | 3.2 | 0.00 | 0.00 | 0.00 | 73 | 1015.8 |
| 20260506043534 | 13 | 0 | 0.0 | 0.0 | 0.00 | 0.00 | 0.00 | 74 | 1015.7 |
| 20260506043047 | 13 | 0 | 0.0 | 3.2 | 0.00 | 0.00 | 0.00 | 73 | 1015.7 |
| 20260506042533 | 13 | 0 | 0.0 | 4.8 | 0.00 | 0.00 | 0.00 | 73 | 1015.7 |
| 20260506042034 | 13 | 355 | 0.0 | 4.8 | 0.00 | 0.00 | 0.00 | 74 | 1015.6 |
| 20260506041549 | 13 | 0 | 0.0 | 4.8 | 0.00 | 0.00 | 0.00 | 73 | 1015.6 |
| 20260506041033 | 13 | 355 | 0.0 | 3.2 | 0.00 | 0.00 | 0.00 | 73 | 1015.6 |
| 20260506040533 | 13 | 0 | 0.0 | 8.0 | 0.00 | 0.00 | 0.00 | 72 | 1015.7 |
| 20260506040059 | 13 | 0 | 1.6 | 8.0 | 0.00 | 0.00 | 0.00 | 72 | 1015.6 |
| 20260506035533 | 13 | 355 | 3.2 | 8.0 | 0.00 | 0.00 | 0.00 | 72 | 1015.5 |
| 20260506035035 | 13 | 355 | 0.0 | 4.8 | 0.00 | 0.00 | 0.00 | 72 | 1015.5 |
| 20260506034557 | 13 | 0 | 0.0 | 8.0 | 0.00 | 0.00 | 0.00 | 71 | 1015.4 |
| 20260506034032 | 13 | 0 | 1.6 | 8.0 | 0.00 | 0.00 | 0.00 | 71 | 1015.3 |
| 20260506033536 | 13 | 355 | 4.8 | 8.0 | 0.00 | 0.00 | 0.00 | 71 | 1015.3 |
| 20260506033049 | 13 | 355 | 1.6 | 8.0 | 0.00 | 0.00 | 0.00 | 70 | 1015.2 |
| 20260506032536 | 13 | 16 | 4.8 | 8.0 | 0.00 | 0.00 | 0.00 | 70 | 1015.2 |
| 20260506032036 | 13 | 352 | 3.2 | 6.4 | 0.00 | 0.00 | 0.00 | 69 | 1015.1 |
| 20260506031548 | 13 | 355 | 1.6 | 4.8 | 0.00 | 0.00 | 0.00 | 70 | 1015.1 |